Flag for U.S.A. Weather past 2 weeks in Orlando, Florida, U.S.A.

Now
83 °F

Thundershowers. Scattered clouds.


Feels Like: 86 °F
Forecast: 74 / 92 °F
Wind: 5 mph from North

Location: Orlando Executive Airport

Current Time: Jul 4, 2015 at 7:33:18 PM

Latest Report: Jul 4, 2015 at 7:04 PM


Visibility: 10 mi

Pressure: 30.13 "Hg

Humidity: 61%

Dew point: 68 °F

Location of OrlandoLocation

Historic Weather in Orlando — Graph

°F

Orlando temperature yesterday

Maximum temperature yesterday: 93 °F (at 1:53 PM)
Minimum temperature yesterday: 74 °F (at 3:53 AM)
Average temperature yesterday: 82 °F

Past Weeks' High & Low Weather Summary

 TemperatureHumidityPressure
High95 °F (Jun 22, 4:53 PM)100% (Jun 20, 3:53 AM)30.18 "Hg (Jun 20, 3:53 AM)
Low0 °F (Jun 25, 7:53 AM)45% (Jun 30, 6:53 PM)29.98 "Hg (Jun 27, 4:53 PM)
Average82 °F76%30.10 "Hg
* Reported Jun 19 5:58 PM — Jul 4 5:53 PM, Orlando, Weather by CustomWeather, © 2015

Note: Actual official high and low records may vary slightly from our data, if they occured in-between our weather recording intervals... More about our weather records

Advertising

Orlando weather history for previous 24 hours

 ConditionsComfort  
Time TempWeatherWind HumidityBarometerVisibility
5:53 PM
Sat, Jul 4
84 °FThundershowers. Sunny.8 mph65%30.10 "Hg10 mi
4:53 PM84 °FSunny.13 mph65%30.09 "Hg10 mi
3:53 PM91 °FPassing clouds.18 mph52%30.10 "Hg10 mi
2:53 PM92 °FPassing clouds.8 mph47%30.09 "Hg10 mi
1:53 PM91 °FPassing clouds.6 mph50%30.12 "Hg10 mi
12:53 PM90 °FScattered clouds.3 mph59%30.14 "Hg10 mi
11:53 AM87 °FPassing clouds.5 mph67%30.15 "Hg10 mi
10:53 AM85 °FSunny.5 mph72%30.15 "Hg10 mi
9:53 AM82 °FSunny.No wind77%30.15 "Hg10 mi
8:53 AM79 °FSunny.No wind79%30.14 "Hg10 mi
7:53 AM78 °FSunny.No wind79%30.14 "Hg10 mi
6:53 AM76 °FClear.No wind85%30.12 "Hg10 mi
5:53 AM76 °FClear.No wind85%30.11 "Hg10 mi
4:53 AM75 °FClear.No wind85%30.09 "Hg10 mi
3:53 AM76 °FClear.3 mph85%30.09 "Hg10 mi
2:53 AM76 °FClear.No wind85%30.09 "Hg10 mi
1:53 AM76 °FClear.No wind82%30.10 "Hg10 mi
12:53 AM77 °FThundershowers. Clear.5 mph77%30.11 "Hg10 mi
11:53 PM
Fri, Jul 3
78 °FThundershowers. Clear.5 mph74%30.13 "Hg10 mi
10:53 PM76 °FThundershowers. Clear.5 mph77%30.11 "Hg10 mi
9:53 PM77 °FThundershowers. Passing clouds.8 mph74%30.12 "Hg10 mi
8:53 PM78 °FThundershowers. Passing clouds.9 mph69%30.11 "Hg10 mi
7:53 PM82 °FSunny.12 mph67%30.10 "Hg10 mi
7:03 PM85 °FScattered clouds.10 mph65%30.06 "Hg10 mi
Weather by CustomWeather, © 2015

See weather overviewHow to use our weather pages